Tiempo atmosférico en la estación meteorológica de Vega de San Mateo, Las Palmas (1702 m.)



Fecha
DESCASC
Temp. máxima en grados centígrados (hora)
DESCASC
Temp. mínima en grados centígrados (hora)
DESCASC
Temp. media en grados centígrados
DESCASC
Racha de viento máxima en m/sg (hora)
DESCASC
Velocidad máxima media en intervalos de 10 minutos(hora)
DESCASC
Precipitaciones diarias en mm
DESCASC
Precipitaciones de 00:00 a 06:00 en mm
DESCASC
Precipitaciones de 06:00 a 12:00 en mm
DESCASC
Precipitaciones de 12:00 a 18:00 en mm
DESCASC
Precipitaciones de 18:00 a 24:00 en mm
DESCASC
25-04-2019 -- (--) -- (--) -- -- (--) -- (--) -- 0 -- -- 0
24-04-2019 15.4 (14:00) 4.2 (01:00) 9.8 6.67 (02:40) 3.33 (18:00) 0 0 0 0 0
23-04-2019 11.9 (12:20) 4.3 (23:10) 8.1 13.33 (03:20) 5.83 (15:50) 0 0 0 0 0
22-04-2019 17.1 (14:00) 7.7 (00:00) 12.4 11.94 (17:40) 5.83 (17:50) 0 0 0 0 0
21-04-2019 14.9 (17:50) 3.3 (00:00) 9.1 10.28 (08:10) 5.56 (07:40) 1 1 0 0 0
20-04-2019 7.8 (13:40) 3.4 (00:00) 5.6 11.67 (03:40) 4.72 (05:30) 2.6 0 1.6 0 1
19-04-2019 14.8 (16:00) 2.2 (00:00) 8.5 13.06 (01:10) 6.67 (01:10) 0.2 0.2 0 0 0
18-04-2019 8.2 (17:10) 3 (00:00) 5.6 10 (21:40) 5.28 (22:20) 0.2 0 0 0.2 0
17-04-2019 15.6 (09:40) 4.3 (00:00) 10 11.39 (01:50) 7.22 (01:20) 0 0 0 0 0
16-04-2019 19.4 (15:50) 11 (00:00) 15.2 11.67 (16:50) 6.67 (19:50) 0 0 0 0 0
15-04-2019 17 (15:20) 7.6 (00:00) 12.3 6.67 (17:20) 3.89 (17:00) 0 0 0 0 0
14-04-2019 19.1 (13:30) 8.9 (00:00) 14 6.11 (03:10) 4.17 (16:20) 0 0 0 0 0
13-04-2019 14.9 (17:40) 3.7 (00:00) 9.3 11.67 (09:00) 5.83 (07:50) 0 0 0 0 0
12-04-2019 11 (17:00) 2.5 (00:00) 6.8 11.11 (10:20) 6.39 (06:20) 0.4 0.2 0.2 0 0
11-04-2019 12.4 (14:10) 2.6 (00:00) 7.5 11.11 (22:00) 6.39 (22:50) 0 0 0 0 0
10-04-2019 10.5 (14:40) 2.4 (00:00) 6.5 9.44 (07:40) 4.72 (05:10) 0 0 0 0 0
09-04-2019 11.6 (14:00) 4.9 (00:00) 8.3 10.28 (23:40) 5 (23:40) 0 0 0 0 0
08-04-2019 13.5 (10:30) 3.9 (00:00) 8.7 6.11 (14:10) 4.17 (14:10) 0 0 0 0 0
07-04-2019 11.6 (15:10) 2.9 (00:00) 7.3 7.5 (15:00) 4.17 (15:20) 0 0 0 0 0
06-04-2019 9.5 (16:40) 1.5 (00:00) 5.5 10 (06:50) 3.89 (22:40) 3 2.2 0.6 0 0.2
05-04-2019 9.2 (16:00) 2.4 (00:00) 5.8 14.72 (18:50) 6.67 (18:50) 1.4 1 0 0 0.4
04-04-2019 8.1 (11:30) 2.6 (00:00) 5.4 8.33 (18:10) 3.06 (19:10) 1.4 0 0.2 1 0.2
03-04-2019 11 (17:10) 3.7 (00:00) 7.4 9.44 (12:30) 5.83 (12:30) 0.2 0 0 0.2 0
02-04-2019 12.7 (14:40) 4.1 (00:00) 8.4 8.06 (03:50) 3.61 (14:40) 0 0 0 0 0
01-04-2019 11.1 (12:30) 2 (00:00) 6.6 6.11 (15:00) 3.33 (15:20) 0 0 0 0 0
31-03-2019 10.4 (13:40) 1.6 (00:00) 6 5.28 (13:50) 3.06 (12:00) 0 0 0 0 0
30-03-2019 9.1 (14:50) 1.1 (00:00) 5.1 7.5 (15:10) 3.89 (16:30) 0.2 0 0.2 0 0
29-03-2019 9.8 (09:40) 1.9 (00:00) 5.9 6.11 (15:30) 3.33 (15:50) 0.2 0 0 0.2 0
28-03-2019 11 (13:10) 1.6 (00:00) 6.3 5.28 (13:20) 3.06 (13:20) 4.8 0.2 0 2.6 2
27-03-2019 10.6 (14:00) 3.1 (00:00) 6.9 5.56 (16:30) 3.89 (19:20) 1.2 0 0 1.2 0

Gráficas

Temp. máximas Temp. mínimas Temp. medias Precipitaciones Rachas de viento máximas Velocidades máximas media en intervalos de 10 minutos

Datos horarios

Fecha y hora oficial Temperatura (ºC) Velocidad del viento (km/h) Dirección del viento Racha (km/h) Dirección de racha Precipitación (mm) Presión (hPa) Tendencia (hPa) Humedad (%)
2019-04-25 23:00:00 10.8 8 Este 18 Este 0 -- -- 18
2019-04-25 22:00:00 8.5 8 Este 15 Este 0 -- -- 55
2019-04-25 21:00:00 10 7 Este 13 Este 0 -- -- 22
2019-04-25 20:00:00 14.2 5 Norte 10 Norte 0 -- -- 26
2019-04-25 19:00:00 15 6 Noroeste 13 Noroeste 0 -- -- 28
2019-04-25 18:00:00 15.7 5 Nordeste 13 Este 0 -- -- 35
2019-04-25 17:00:00 14.1 8 Este 16 Este 0 -- -- 46
2019-04-25 16:00:00 14.8 8 Nordeste 17 Norte 0 -- -- 60
2019-04-25 15:00:00 15.7 7 Norte 19 Oeste 0 -- -- 48
2019-04-25 14:00:00 15.9 10 Oeste -- -- -- -- -- 44
2019-04-25 13:00:00 -- -- -- -- -- -- -- -- --
2019-04-25 12:00:00 -- -- -- -- -- -- -- -- --
2019-04-25 11:00:00 -- 5 Nordeste 14 Norte 0 -- -- --
2019-04-25 10:00:00 15.2 3 Nordeste 12 Este 0 -- -- 17
2019-04-25 09:00:00 12.7 4 Este 13 Nordeste 0 -- -- 20
2019-04-25 08:00:00 6.7 3 Nordeste 6 Nordeste 0 -- -- 30
2019-04-25 07:00:00 7.4 3 Este 9 Nordeste 0 -- -- 29
2019-04-25 06:00:00 8.4 4 Nordeste 15 Nordeste 0 -- -- 27
2019-04-25 05:00:00 7.4 5 Este 12 Este 0 -- -- 27
2019-04-25 04:00:00 7.9 5 Nordeste 14 Nordeste 0 -- -- 25
2019-04-25 03:00:00 7.9 5 Nordeste 16 Este 0 -- -- 19
2019-04-25 02:00:00 9.3 6 Nordeste 15 Nordeste 0 -- -- 21
2019-04-25 01:00:00 8.3 5 Este 10 Este 0 -- -- 24
2019-04-25 00:00:00 8.9 2 Este 11 Norte 0 -- -- 30
2019-04-24 23:00:00 8.7 3 Oeste 12 Oeste 0 -- -- 29
2019-04-24 22:00:00 9.4 3 Sur 12 Este 0 -- -- 27
2019-04-24 21:00:00 9.2 6 Sudoeste 18 Noroeste 0 -- -- 20
2019-04-24 20:00:00 11.8 7 Noroeste 18 Noroeste 0 -- -- 35
2019-04-24 19:00:00 12.1 9 Oeste 19 Oeste 0 -- -- 60
2019-04-24 18:00:00 13.1 12 Oeste 21 Oeste 0 -- -- 58
2019-04-24 17:00:00 14.6 9 Noroeste 17 Norte 0 -- -- 61
2019-04-24 16:00:00 13.6 8 Norte 18 Noroeste 0 -- -- 68
2019-04-24 15:00:00 15 8 Noroeste 22 Oeste 0 -- -- 58
2019-04-24 14:00:00 15.4 9 Noroeste 20 Oeste 0 -- -- 41
2019-04-24 13:00:00 14 7 Oeste 22 Noroeste 0 -- -- 50
2019-04-24 12:00:00 12.7 7 Noroeste 21 Noroeste 0 -- -- 55
2019-04-24 11:00:00 13 6 Oeste 19 Nordeste 0 -- -- 42
2019-04-24 10:00:00 13.2 5 Norte 14 Noroeste 0 -- -- 33
2019-04-24 09:00:00 11.3 6 Sudoeste 17 Nordeste 0 -- -- 39
2019-04-24 08:00:00 8.4 4 Sudoeste 15 Este 0 -- -- 45
2019-04-24 07:00:00 8.1 5 Este 15 Nordeste 0 -- -- 45
2019-04-24 06:00:00 8.9 7 Nordeste 23 Nordeste 0 -- -- 38
2019-04-24 05:00:00 7.6 5 Noroeste 22 Noroeste 0 -- -- 51
2019-04-24 04:00:00 4.9 6 Este 18 Este 0 -- -- 83
2019-04-24 03:00:00 7 5 Este 24 Oeste 0 -- -- 63
2019-04-24 02:00:00 5.7 2 Oeste 14 Noroeste 0 -- -- 69
2019-04-24 01:00:00 4.2 4 Norte 14 Noroeste 0 -- -- 97
2019-04-24 00:00:00 5 5 Noroeste 21 Norte 0 -- -- 97
2019-04-23 23:00:00 4.4 4 Oeste 29 Oeste 0 -- -- 90
2019-04-23 22:00:00 5.4 13 Oeste 22 Oeste 0 -- -- 81
2019-04-23 21:00:00 4.7 10 Oeste 25 Oeste 0 -- -- 88
2019-04-23 20:00:00 5.8 13 Oeste 22 Oeste 0 -- -- 91
2019-04-23 19:00:00 7.3 12 Oeste 22 Oeste 0 -- -- 87
2019-04-23 18:00:00 8.4 16 Oeste 26 Oeste 0 -- -- 88
2019-04-23 17:00:00 10.5 16 Oeste 33 Oeste 0 -- -- 70
2019-04-23 16:00:00 10.7 21 Oeste 36 Oeste 0 -- -- 71
2019-04-23 15:00:00 11 17 Oeste 28 Oeste 0 -- -- 73
2019-04-23 14:00:00 11.1 15 Oeste 29 Oeste 0 -- -- 72
2019-04-23 13:00:00 11.1 15 Oeste 26 Noroeste 0 -- -- 71
2019-04-23 12:00:00 11.6 12 Oeste 22 Oeste 0 -- -- 59
2019-04-23 11:00:00 9.9 11 Oeste 27 Oeste 0 -- -- 69
2019-04-23 10:00:00 9.2 15 Oeste 31 Sudoeste 0 -- -- 61
2019-04-23 09:00:00 8.7 11 Oeste 31 Oeste 0 -- -- 72
2019-04-23 08:00:00 6.4 18 Oeste 36 Oeste 0 -- -- 83
2019-04-23 07:00:00 6.6 10 Oeste 33 Oeste 0 -- -- 72
2019-04-23 06:00:00 7.9 14 Oeste 36 Oeste 0 -- -- 58
2019-04-23 05:00:00 8.6 18 Oeste 42 Oeste 0 -- -- 52
2019-04-23 04:00:00 9.2 18 Oeste 48 Oeste 0 -- -- 53
2019-04-23 03:00:00 8.9 20 Oeste 42 Oeste 0 -- -- 51
2019-04-23 02:00:00 9.1 11 Oeste 27 Oeste 0 -- -- 48
2019-04-23 01:00:00 9.1 10 Oeste 22 Oeste 0 -- -- 47
2019-04-23 00:00:00 9.6 9 Oeste 26 Oeste 0 -- -- 41
2019-04-22 23:00:00 11 8 Noroeste 24 Sudoeste 0 -- -- 34
2019-04-22 22:00:00 11.5 8 Noroeste 29 Oeste 0 -- -- 33
2019-04-22 21:00:00 11 5 Noroeste 22 Oeste 0 -- -- 34
2019-04-22 20:00:00 12.4 11 Oeste 31 Oeste 0 -- -- 35
2019-04-22 19:00:00 13.9 17 Oeste 37 Oeste 0 -- -- 36
2019-04-22 18:00:00 16 14 Noroeste 43 Oeste 0 -- -- 30
2019-04-22 17:00:00 16.7 13 Oeste 30 Oeste 0 -- -- 31
2019-04-22 16:00:00 17.1 12 Noroeste 28 Oeste 0 -- -- 28
2019-04-22 15:00:00 16.7 10 Oeste 30 Noroeste 0 -- -- 30
2019-04-22 14:00:00 17.1 11 Norte 29 Norte 0 -- -- 29
2019-04-22 13:00:00 16 11 Noroeste 31 Norte 0 -- -- 30
2019-04-22 12:00:00 15.4 13 Noroeste 30 Norte 0 -- -- 32
2019-04-22 11:00:00 14.4 13 Noroeste 27 Noroeste 0 -- -- 27
2019-04-22 10:00:00 13.7 9 Noroeste 22 Oeste 0 -- -- 29
2019-04-22 09:00:00 12.1 9 Noroeste 20 Noroeste 0 -- -- 35
2019-04-22 08:00:00 9.8 8 Noroeste 28 Noroeste 0 -- -- 36
2019-04-22 07:00:00 10 11 Noroeste 31 Noroeste 0 -- -- 35
2019-04-22 06:00:00 8.7 6 Sudoeste 14 Sudoeste 0 -- -- 38
2019-04-22 05:00:00 9.1 6 Sudoeste 15 Oeste 0 -- -- 38
2019-04-22 04:00:00 9.7 4 Sudoeste 21 Este 0 -- -- 36
2019-04-22 03:00:00 9.4 7 Este 18 Este 0 -- -- 37
2019-04-22 02:00:00 9.6 7 Sudeste 21 Este 0 -- -- 38
2019-04-22 01:00:00 9.2 12 Este 25 Este 0 -- -- 46
2019-04-22 00:00:00 8.6 12 Sudeste 23 Este 0 -- -- 54
2019-04-21 23:00:00 8.7 9 Sudeste 23 Este 0 -- -- 55
2019-04-21 22:00:00 8.9 10 Sudeste 22 Este 0 -- -- 56
2019-04-21 21:00:00 9 9 Sudeste 28 Este 0 -- -- 57
2019-04-21 20:00:00 10.8 10 Sudeste 27 Norte 0 -- -- 49
2019-04-21 19:00:00 13.4 5 Sudeste 21 Norte 0 -- -- 43
2019-04-21 18:00:00 14.6 6 Norte 19 Nordeste 0 -- -- 58
2019-04-21 17:00:00 14.5 4 Nordeste 17 Nordeste 0 -- -- 60
2019-04-21 16:00:00 12.4 8 Este 18 Este 0 -- -- 61
2019-04-21 15:00:00 12.1 8 Este 22 Este 0 -- -- 71
2019-04-21 14:00:00 12 8 Este 19 Este 0 -- -- 66
2019-04-21 13:00:00 11.6 8 Este 20 Este 0 -- -- 62
2019-04-21 12:00:00 8.3 7 Este 21 Nordeste 0 -- -- 94
2019-04-21 11:00:00 6.3 11 Este 28 Este 0 -- -- 99
2019-04-21 10:00:00 5.7 12 Este 36 Este 0 -- -- 99
2019-04-21 09:00:00 5.1 15 Este 37 Este 0 -- -- 99
2019-04-21 08:00:00 4.1 19 Este 33 Este 0 -- -- 99
2019-04-21 07:00:00 3.6 18 Este 32 Este 0 -- -- 99
2019-04-21 06:00:00 3.9 17 Este 35 Este 0.2 -- -- 99
2019-04-21 05:00:00 4.9 13 Este 30 Este 0 -- -- 99
2019-04-21 04:00:00 4.9 11 Este 27 Este 0 -- -- 99
2019-04-21 03:00:00 3.9 8 Este 22 Este 0.2 -- -- 99
2019-04-21 02:00:00 4.6 4 Este 24 Nordeste 0.2 -- -- 98
2019-04-21 01:00:00 5.3 5 Sudeste 22 Este 0.4 -- -- 98
2019-04-21 00:00:00 5.5 7 Este 22 Sudeste 0.6 -- -- 99
2019-04-20 23:00:00 4.8 8 Este 22 Nordeste 0.2 -- -- 98
2019-04-20 22:00:00 4.6 7 Nordeste 23 Este 0.2 -- -- 98
2019-04-20 21:00:00 4.4 10 Este 34 Este 0 -- -- 98
2019-04-20 20:00:00 5 6 Este 26 Norte 0 -- -- 98
2019-04-20 19:00:00 5.7 5 Este 22 Este 0 -- -- 97
2019-04-20 18:00:00 6.5 5 Sudeste 21 Norte 0 -- -- 94
2019-04-20 17:00:00 6.7 6 Noroeste 18 Oeste 0 -- -- 94
2019-04-20 16:00:00 7.2 6 Noroeste 15 Noroeste 0 -- -- 91
2019-04-20 15:00:00 7.4 4 Nordeste 17 Noroeste 0 -- -- 95
2019-04-20 14:00:00 7.6 3 Sudoeste 20 Nordeste 0 -- -- 94
2019-04-20 13:00:00 7.6 6 Norte 22 Este 0 -- -- 98
2019-04-20 12:00:00 6.2 6 Este 23 Este 0.6 -- -- 97
2019-04-20 11:00:00 5.5 9 Este 27 Nordeste 0.2 -- -- 98
2019-04-20 10:00:00 4.9 11 Nordeste 28 Nordeste 0.4 -- -- 98
2019-04-20 09:00:00 4.9 11 Este 33 Este 0.2 -- -- 98
2019-04-20 08:00:00 4 9 Nordeste 33 Este 0.2 -- -- 97
2019-04-20 07:00:00 4.4 14 Este 36 Este 0 -- -- 97
2019-04-20 06:00:00 -- -- -- -- -- -- -- -- --
2019-04-20 05:00:00 3.7 16 Nordeste 32 Nordeste 0 -- -- 89
2019-04-20 04:00:00 5.4 14 Nordeste 42 Nordeste 0 -- -- 59
2019-04-20 03:00:00 5.4 11 Nordeste 37 Nordeste 0 -- -- 49
2019-04-20 02:00:00 5 12 Nordeste 38 Este 0 -- -- 54
2019-04-20 01:00:00 5.5 12 Este 32 Nordeste 0 -- -- 52
2019-04-20 00:00:00 6.8 11 Nordeste 30 Nordeste 0 -- -- 43
2019-04-19 23:00:00 7.6 12 Este 28 Este 0 -- -- 27
2019-04-19 22:00:00 7.9 11 Este 32 Nordeste 0 -- -- 24
2019-04-19 21:00:00 7.7 12 Este 44 Este 0 -- -- 28
2019-04-19 20:00:00 11.3 6 Nordeste 23 Noroeste 0 -- -- 19
2019-04-19 19:00:00 12.8 6 Este 20 Noroeste 0 -- -- 20
2019-04-19 18:00:00 14.1 10 Noroeste 26 Norte 0 -- -- 22
2019-04-19 17:00:00 13.8 11 Noroeste 28 Norte 0 -- -- 29
2019-04-19 16:00:00 14.8 6 Oeste 22 Noroeste 0 -- -- 23
2019-04-19 15:00:00 13 7 Este 19 Este 0 -- -- 36
2019-04-19 14:00:00 12.6 9 Este 26 Este 0 -- -- 33
2019-04-19 13:00:00 12.1 10 Este 26 Este 0 -- -- 47
2019-04-19 12:00:00 9.4 14 Este 36 Este 0 -- -- 53
2019-04-19 11:00:00 6.3 15 Este 32 Este 0 -- -- 70
2019-04-19 10:00:00 6.5 13 Este 37 Este 0 -- -- 75
2019-04-19 09:00:00 3.6 18 Este 39 Este 0 -- -- 98
2019-04-19 08:00:00 2.7 21 Este 42 Este 0 -- -- 96
2019-04-19 07:00:00 3.1 14 Este 36 Este 0 -- -- 84
2019-04-19 06:00:00 4.3 17 Este 35 Este 0 -- -- 98
2019-04-19 05:00:00 3.1 16 Este 33 Este 0 -- -- 99
2019-04-19 04:00:00 3.2 16 Este 36 Este 0.2 -- -- 98
2019-04-19 03:00:00 4.1 18 Este 38 Este 0 -- -- 98
2019-04-19 02:00:00 3.3 17 Este 47 Este 0 -- -- 98
2019-04-19 01:00:00 3.7 21 Este 44 Este 0 -- -- 99
2019-04-19 00:00:00 3.3 15 Este 35 Este 0 -- -- 98
2019-04-18 23:00:00 3.1 17 Este 36 Este 0 -- -- 98
2019-04-18 22:00:00 3.8 17 Este 36 Este 0 -- -- 98
2019-04-18 21:00:00 3.8 13 Este 28 Nordeste 0 -- -- 97
2019-04-18 20:00:00 4.1 12 Este 31 Este 0 -- -- 95
2019-04-18 19:00:00 5.4 14 Este 26 Nordeste 0 -- -- 85
2019-04-18 18:00:00 6.6 11 Este 20 Este 0 -- -- 84
2019-04-18 17:00:00 7.4 8 Este 22 Este 0 -- -- 86
2019-04-18 16:00:00 7.1 9 Este 24 Este 0 -- -- 92
2019-04-18 15:00:00 6.6 9 Este 21 Nordeste 0.2 -- -- 94
2019-04-18 14:00:00 6.5 8 Este 22 Este 0 -- -- 97
2019-04-18 13:00:00 6.4 5 Este 22 Sudeste 0 -- -- 96
2019-04-18 12:00:00 5.8 8 Este 23 Este 0 -- -- 97
2019-04-18 11:00:00 5.4 9 Este 27 Nordeste 0 -- -- 98
2019-04-18 10:00:00 4.4 13 Nordeste 26 Este 0 -- -- 98
2019-04-18 09:00:00 4.1 13 Este 28 Nordeste 0 -- -- 98
2019-04-18 08:00:00 4 14 Este 30 Este 0 -- -- 98
2019-04-18 07:00:00 4.2 12 Este 25 Nordeste 0 -- -- 98
2019-04-18 06:00:00 3.7 9 Nordeste 24 Nordeste 0 -- -- 98
2019-04-18 05:00:00 3.1 11 Nordeste 21 Este 0 -- -- 98
2019-04-18 04:00:00 3.5 6 Nordeste 15 Noroeste 0 -- -- 98
2019-04-18 03:00:00 4.3 6 Nordeste 21 Nordeste 0 -- -- 98
2019-04-18 02:00:00 4.3 4 Oeste 17 Noroeste 0 -- -- 98
2019-04-18 01:00:00 5 5 Nordeste 22 Este 0 -- -- 98
2019-04-18 00:00:00 4.5 5 Nordeste 20 Noroeste 0 -- -- 98
2019-04-17 23:00:00 5.5 5 Noroeste 13 Oeste 0 -- -- 97
2019-04-17 22:00:00 4.3 3 Oeste 14 Oeste 0 -- -- 97
2019-04-17 21:00:00 6.5 9 Oeste 18 Oeste 0 -- -- 98
2019-04-17 20:00:00 7.2 10 Oeste 18 Oeste 0 -- -- 97
2019-04-17 19:00:00 7.8 13 Oeste 24 Noroeste 0 -- -- 97
2019-04-17 18:00:00 8.9 13 Oeste 26 Oeste 0 -- -- 95
2019-04-17 17:00:00 10.3 13 Oeste 23 Oeste 0 -- -- 90
2019-04-17 16:00:00 11.1 15 Oeste 23 Oeste 0 -- -- 84
2019-04-17 15:00:00 13.6 14 Oeste 24 Oeste 0 -- -- 71
2019-04-17 14:00:00 13.9 15 Oeste 25 Oeste 0 -- -- 69
2019-04-17 13:00:00 13.6 14 Oeste 22 Noroeste 0 -- -- 63
2019-04-17 12:00:00 13.3 10 Oeste 21 Oeste 0 -- -- 56
2019-04-17 11:00:00 13.7 5 Oeste 17 Sudoeste 0 -- -- 40
2019-04-17 10:00:00 13.6 5 Sudoeste 25 Sudoeste 0 -- -- 32
2019-04-17 09:00:00 13.2 12 Oeste 28 Sudoeste 0 -- -- 30
2019-04-17 08:00:00 11.2 14 Oeste 25 Oeste 0 -- -- 31
2019-04-17 07:00:00 11.5 16 Oeste 31 Oeste 0 -- -- 14
2019-04-17 06:00:00 11.4 14 Oeste 30 Oeste 0 -- -- 8
2019-04-17 05:00:00 11.3 17 Oeste 32 Sudoeste 0 -- -- 6
2019-04-17 04:00:00 11.9 19 Sudoeste 36 Sudoeste 0 -- -- 13
2019-04-17 03:00:00 11.8 22 Sudoeste 38 Sudoeste 0 -- -- 14
2019-04-17 02:00:00 12 23 Sudoeste 41 Oeste 0 -- -- 16
2019-04-17 01:00:00 12.2 21 Oeste 36 Oeste 0 -- -- 17
2019-04-17 00:00:00 12.6 19 Oeste 38 Sudoeste 0 -- -- 17
2019-04-16 23:00:00 11.6 18 Oeste 30 Oeste 0 -- -- 17
2019-04-16 22:00:00 12.2 13 Oeste 30 Sudoeste 0 -- -- 16
2019-04-16 21:00:00 12.9 16 Sudoeste 35 Sudoeste 0 -- -- 17
2019-04-16 20:00:00 14.4 22 Sudoeste 39 Sudoeste 0 -- -- 21
2019-04-16 19:00:00 16.6 21 Sudoeste 41 Sudoeste 0 -- -- 23
2019-04-16 18:00:00 16.8 23 Sudoeste 38 Sudoeste 0 -- -- 31
2019-04-16 17:00:00 17 19 Oeste 42 Oeste 0 -- -- 47
2019-04-16 16:00:00 19.3 19 Sudoeste 40 Sudoeste 0 -- -- 27
2019-04-16 15:00:00 19.1 16 Oeste 36 Sudoeste 0 -- -- 36
2019-04-16 14:00:00 18.9 17 Oeste 32 Sudoeste 0 -- -- 35
2019-04-16 13:00:00 17.5 16 Oeste 27 Oeste 0 -- -- 35
2019-04-16 12:00:00 15.5 16 Oeste 29 Sudoeste 0 -- -- 28
2019-04-16 11:00:00 18.2 12 Sudoeste 26 Oeste 0 -- -- 12
2019-04-16 10:00:00 17.2 11 Sudoeste 22 Sudoeste 0 -- -- 5
2019-04-16 09:00:00 15.6 10 Sudoeste 23 Sudoeste 0 -- -- 7
2019-04-16 08:00:00 13.1 10 Oeste 21 Sudoeste 0 -- -- 6
2019-04-16 07:00:00 11.4 6 Sudoeste 17 Sudoeste 0 -- -- 6
2019-04-16 06:00:00 11.2 4 Sudoeste 13 Sur 0 -- -- 7
2019-04-16 05:00:00 11.4 5 Sudoeste 14 Sur 0 -- -- 7
2019-04-16 04:00:00 11 3 Sudoeste 11 Sur 0 -- -- 7
2019-04-16 03:00:00 11.3 3 Sur 12 Oeste 0 -- -- 7
2019-04-16 02:00:00 11.9 3 Sur 16 Sur 0 -- -- 7
2019-04-16 01:00:00 12.1 6 Sudeste 13 Sur 0 -- -- 8
2019-04-16 00:00:00 11.8 0 Calma 10 Sur 0 -- -- 10
2019-04-15 23:00:00 11.9 4 Sur 6 Sur 0 -- -- 6
2019-04-15 22:00:00 11.9 3 Sur 5 Sudoeste 0 -- -- 9
2019-04-15 21:00:00 11.3 2 Sur 5 Sudoeste 0 -- -- 18
2019-04-15 20:00:00 15.9 2 Oeste 12 Oeste 0 -- -- 65
2019-04-15 19:00:00 15.1 9 Oeste 18 Oeste 0 -- -- 71
2019-04-15 18:00:00 16 10 Oeste 24 Oeste 0 -- -- 67
2019-04-15 17:00:00 16.3 14 Oeste 22 Oeste 0 -- -- 64
2019-04-15 16:00:00 16.5 11 Oeste 22 Oeste 0 -- -- 61
2019-04-15 15:00:00 16.3 9 Oeste 18 Oeste 0 -- -- 60
2019-04-15 14:00:00 16.4 5 Noroeste 16 Oeste 0 -- -- 59
2019-04-15 13:00:00 14.5 5 Este 17 Nordeste 0 -- -- 64
2019-04-15 12:00:00 13 9 Nordeste 18 Nordeste 0 -- -- 63
2019-04-15 11:00:00 14.1 10 Nordeste 15 Este 0 -- -- 47
2019-04-15 10:00:00 14.7 5 Nordeste 14 Nordeste 0 -- -- 18
2019-04-15 09:00:00 11.5 5 Nordeste 10 Nordeste 0 -- -- 25
2019-04-15 08:00:00 7.7 3 Nordeste 11 Nordeste 0 -- -- 31
2019-04-15 07:00:00 8.9 4 Este 7 Este 0 -- -- 23
2019-04-15 06:00:00 9.1 3 Este 8 Sudeste 0 -- -- 18
2019-04-15 05:00:00 9.9 3 Sudeste 5 Este 0 -- -- 15
2019-04-15 04:00:00 9.1 4 Nordeste 7 Norte 0 -- -- 24
2019-04-15 03:00:00 9 2 Nordeste 7 Este 0 -- -- 14
2019-04-15 02:00:00 9 2 Nordeste 5 Norte 0 -- -- 13
2019-04-15 01:00:00 9.6 2 Norte 6 Oeste 0 -- -- 11
2019-04-15 00:00:00 9.7 0 Calma 8 Sudoeste 0 -- -- 13
2019-04-14 23:00:00 12.9 5 Oeste 10 Sudoeste 0 -- -- 5
2019-04-14 22:00:00 12.2 5 Sudoeste 13 Oeste 0 -- -- 14
2019-04-14 21:00:00 11.9 3 Sudoeste 6 Sur 0 -- -- 18
2019-04-14 20:00:00 14.9 5 Oeste 13 Oeste 0 -- -- 46
2019-04-14 19:00:00 16.8 7 Oeste 21 Sudoeste 0 -- -- 42
2019-04-14 18:00:00 15.8 10 Oeste 22 Oeste 0 -- -- 52
2019-04-14 17:00:00 18.1 9 Oeste 22 Oeste 0 -- -- 44
2019-04-14 16:00:00 18.2 12 Noroeste 22 Oeste 0 -- -- 42
2019-04-14 15:00:00 18.4 11 Oeste 19 Oeste 0 -- -- 40
2019-04-14 14:00:00 18.2 10 Oeste 18 Oeste 0 -- -- 35
2019-04-14 13:00:00 18.4 7 Sur 17 Sudeste 0 -- -- 20
2019-04-14 12:00:00 17 10 Sur 20 Sudeste 0 -- -- 22
2019-04-14 11:00:00 18.4 5 Oeste 18 Sudeste 0 -- -- 20
2019-04-14 10:00:00 17.9 6 Sudeste 14 Sudeste 0 -- -- 16
2019-04-14 09:00:00 15.6 9 Sudeste 20 Este 0 -- -- 9
2019-04-14 08:00:00 11.1 6 Este 16 Este 0 -- -- 14
2019-04-14 07:00:00 12.8 10 Este 16 Este 0 -- -- 8
2019-04-14 06:00:00 10.2 8 Este 16 Nordeste 0 -- -- 18
2019-04-14 05:00:00 9.1 10 Este 18 Este 0 -- -- 23
2019-04-14 04:00:00 9.5 10 Nordeste 22 Nordeste 0 -- -- 20
2019-04-14 03:00:00 10.3 12 Este 22 Este 0 -- -- 18
2019-04-14 02:00:00 10.8 9 Este 19 Nordeste 0 -- -- 21
2019-04-14 01:00:00 10.5 9 Este 17 Este 0 -- -- 21
2019-04-14 00:00:00 10.2 7 Este 19 Este 0 -- -- 27
2019-04-13 23:00:00 10.3 10 Este 20 Nordeste 0 -- -- 25
2019-04-13 22:00:00 10.4 9 Este 20 Nordeste 0 -- -- 27
2019-04-13 21:00:00 10.1 12 Este 24 Este 0 -- -- 31
2019-04-13 20:00:00 12 10 Este 21 Este 0 -- -- 30
2019-04-13 19:00:00 14 8 Este 19 Nordeste 0 -- -- 41
2019-04-13 18:00:00 14.5 11 Nordeste 21 Nordeste 0 -- -- 38
2019-04-13 17:00:00 14.4 10 Este 24 Este 0 -- -- 23
2019-04-13 16:00:00 14.3 13 Nordeste 24 Nordeste 0 -- -- 27
2019-04-13 15:00:00 13.4 11 Este 27 Nordeste 0 -- -- 33
2019-04-13 14:00:00 14.1 10 Este 24 Nordeste 0 -- -- 36
2019-04-13 13:00:00 13.7 12 Este 28 Sudeste 0 -- -- 29
2019-04-13 12:00:00 12.6 15 Este 33 Este 0 -- -- 22
2019-04-13 11:00:00 12 13 Este 39 Este 0 -- -- 19
2019-04-13 10:00:00 11 17 Este 35 Nordeste 0 -- -- 22
2019-04-13 09:00:00 9.2 17 Este 42 Nordeste 0 -- -- 26
2019-04-13 08:00:00 7 19 Este 39 Este 0 -- -- 34
2019-04-13 07:00:00 7.4 18 Este 36 Este 0 -- -- 23
2019-04-13 06:00:00 7.5 18 Este 29 Este 0 -- -- 24
2019-04-13 05:00:00 7.2 17 Este 29 Nordeste 0 -- -- 28
2019-04-13 04:00:00 6.9 15 Este 28 Este 0 -- -- 27
2019-04-13 03:00:00 3.8 15 Este 32 Este 0 -- -- 83
2019-04-13 02:00:00 6 16 Este 30 Nordeste 0 -- -- 58
2019-04-13 01:00:00 7.3 15 Este 32 Este 0 -- -- 29
2019-04-13 00:00:00 7 15 Este 33 Este 0 -- -- 36
2019-04-12 23:00:00 7.4 19 Este 36 Este 0 -- -- 14
2019-04-12 22:00:00 6.9 17 Este 30 Este 0 -- -- 20
2019-04-12 21:00:00 7 15 Este 31 Este 0 -- -- 18
2019-04-12 20:00:00 7.9 15 Este 31 Nordeste 0 -- -- 15
2019-04-12 19:00:00 10 10 Este 30 Este 0 -- -- 26
2019-04-12 18:00:00 10.9 15 Este 31 Este 0 -- -- 21
2019-04-12 17:00:00 11 14 Este 32 Este 0 -- -- 33
2019-04-12 16:00:00 10.5 15 Este 29 Este 0 -- -- 28
2019-04-12 15:00:00 9.6 14 Este 30 Este 0 -- -- 42
2019-04-12 14:00:00 10.1 14 Este 26 Este 0 -- -- 34
2019-04-12 13:00:00 8.8 13 Este 28 Este 0 -- -- 76
2019-04-12 12:00:00 5.9 13 Este 33 Este 0 -- -- 98
2019-04-12 11:00:00 4.8 21 Este 40 Este 0 -- -- 99
2019-04-12 10:00:00 3.9 20 Este 33 Este 0 -- -- 98
2019-04-12 09:00:00 3.9 18 Este 37 Este 0.2 -- -- 98
2019-04-12 08:00:00 3.8 16 Este 36 Este 0 -- -- 98
2019-04-12 07:00:00 2.8 19 Este 37 Este 0 -- -- 98
2019-04-12 06:00:00 4.1 18 Este 36 Este 0 -- -- 98
2019-04-12 05:00:00 3.1 16 Este 34 Nordeste 0 -- -- 98
2019-04-12 04:00:00 2.7 18 Este 30 Este 0.2 -- -- 98
2019-04-12 03:00:00 3.4 18 Este 32 Este 0 -- -- 97
2019-04-12 02:00:00 3.8 19 Este 35 Este 0 -- -- 97
2019-04-12 01:00:00 3 12 Este 31 Este 0 -- -- 97
2019-04-12 00:00:00 3.4 15 Este 37 Nordeste 0 -- -- 97
2019-04-11 23:00:00 3.8 19 Este 38 Nordeste 0 -- -- 97
2019-04-11 22:00:00 3.4 18 Este 40 Este 0 -- -- 96
2019-04-11 21:00:00 5.1 16 Este 29 Este 0 -- -- 64
2019-04-11 20:00:00 6.5 15 Este 32 Nordeste 0 -- -- 50
2019-04-11 19:00:00 8.5 13 Este 26 Nordeste 0 -- -- 42
2019-04-11 18:00:00 11 8 Este 23 Este 0 -- -- 30
2019-04-11 17:00:00 9.7 10 Este 24 Nordeste 0 -- -- 61
2019-04-11 16:00:00 10.7 10 Este 19 Este 0 -- -- 63
2019-04-11 15:00:00 11 10 Este 19 Nordeste 0 -- -- 63
2019-04-11 14:00:00 11.4 7 Este 19 Este 0 -- -- 55
2019-04-11 13:00:00 11.3 12 Este 22 Este 0 -- -- 43
2019-04-11 12:00:00 8.4 14 Este 31 Este 0 -- -- 72
2019-04-11 11:00:00 8.9 17 Este 33 Este 0 -- -- 51
2019-04-11 10:00:00 8.5 15 Este 32 Este 0 -- -- 44
2019-04-11 09:00:00 6.4 18 Este 37 Este 0 -- -- 44
2019-04-11 08:00:00 4.4 17 Este 33 Este 0 -- -- 54
2019-04-11 07:00:00 4.1 18 Este 36 Este 0 -- -- 64
2019-04-11 06:00:00 4.8 17 Este 34 Este 0 -- -- 53
2019-04-11 05:00:00 4.8 16 Este 34 Este 0 -- -- 56
2019-04-11 04:00:00 2.8 14 Este 34 Este 0 -- -- 91
2019-04-11 03:00:00 5.1 17 Este 30 Este 0 -- -- 56
2019-04-11 02:00:00 6.5 14 Este 32 Este 0 -- -- 29
2019-04-11 01:00:00 5.5 17 Este 33 Este 0 -- -- 39
2019-04-11 00:00:00 6.8 13 Este 27 Este 0 -- -- 27
2019-04-10 23:00:00 3.4 12 Este 27 Este 0 -- -- 95
2019-04-10 22:00:00 3.7 11 Este 27 Este 0 -- -- 96
2019-04-10 21:00:00 4.3 13 Este 27 Este 0 -- -- 64
2019-04-10 20:00:00 4.8 13 Este 23 Este 0 -- -- 88
2019-04-10 19:00:00 6.1 12 Este 25 Este 0 -- -- 88
2019-04-10 18:00:00 7.6 11 Este 19 Este 0 -- -- 77
2019-04-10 17:00:00 9.1 10 Nordeste 18 Este 0 -- -- 75
2019-04-10 16:00:00 9.4 8 Este 20 Este 0 -- -- 75
2019-04-10 15:00:00 9.9 10 Este 21 Nordeste 0 -- -- 76
2019-04-10 14:00:00 9.5 9 Este 21 Este 0 -- -- 76
2019-04-10 13:00:00 10.3 8 Este 19 Este 0 -- -- 65
2019-04-10 12:00:00 7.4 11 Este 24 Nordeste 0 -- -- 82
2019-04-10 11:00:00 6.1 10 Este 20 Este 0 -- -- 84
2019-04-10 10:00:00 4.6 11 Este 22 Este 0 -- -- 94
2019-04-10 09:00:00 3 11 Este 28 Este 0 -- -- 98
2019-04-10 08:00:00 3.5 13 Este 34 Este 0 -- -- 98
2019-04-10 07:00:00 3.1 15 Este 28 Este 0 -- -- 98
2019-04-10 06:00:00 3.5 16 Este 30 Nordeste 0 -- -- 97
2019-04-10 05:00:00 2.7 13 Este 27 Este 0 -- -- 96
2019-04-10 04:00:00 3.4 12 Este 33 Este 0 -- -- 91
2019-04-10 03:00:00 5.4 13 Este 28 Este 0 -- -- 60
2019-04-10 02:00:00 5.2 13 Este 30 Este 0 -- -- 45
2019-04-10 01:00:00 4.9 14 Este 30 Este 0 -- -- 55
2019-04-10 00:00:00 5.9 15 Este 37 Este 0 -- -- 67
2019-04-09 23:00:00 6.3 15 Este 29 Este 0 -- -- 47
2019-04-09 22:00:00 6.2 13 Este 27 Este 0 -- -- 41
2019-04-09 21:00:00 6.3 14 Este 24 Este 0 -- -- 39
2019-04-09 20:00:00 7.6 8 Este 18 Nordeste 0 -- -- 64
2019-04-09 19:00:00 9.5 4 Este 14 Nordeste 0 -- -- 78
2019-04-09 18:00:00 8.6 8 Nordeste 17 Nordeste 0 -- -- 88
2019-04-09 17:00:00 9 8 Nordeste 18 Este 0 -- -- 92
2019-04-09 16:00:00 9.6 7 Nordeste 18 Nordeste 0 -- -- 90
2019-04-09 15:00:00 9.6 8 Nordeste 16 Nordeste 0 -- -- 90
2019-04-09 14:00:00 11.6 8 Nordeste 22 Nordeste 0 -- -- 81
2019-04-09 13:00:00 10.4 12 Nordeste 22 Este 0 -- -- 71
2019-04-09 12:00:00 8.5 12 Nordeste 30 Nordeste 0 -- -- 80
2019-04-09 11:00:00 8.4 14 Este 25 Este 0 -- -- 76
2019-04-09 10:00:00 8.1 12 Este 21 Nordeste 0 -- -- 65
2019-04-09 09:00:00 6.7 12 Este 21 Este 0 -- -- 70
2019-04-09 08:00:00 5.2 8 Este 19 Este 0 -- -- 58
2019-04-09 07:00:00 5.4 13 Nordeste 24 Este 0 -- -- 74
2019-04-09 06:00:00 5.5 13 Este 24 Nordeste 0 -- -- 73
2019-04-09 05:00:00 5.4 12 Este 23 Nordeste 0 -- -- 62
2019-04-09 04:00:00 6 12 Nordeste 21 Nordeste 0 -- -- 43
2019-04-09 03:00:00 5.9 14 Nordeste 21 Nordeste 0 -- -- 49
2019-04-09 02:00:00 6.1 13 Nordeste 19 Este 0 -- -- 42
2019-04-09 01:00:00 5.9 5 Nordeste 12 Este 0 -- -- 17
2019-04-09 00:00:00 6.5 5 Nordeste 12 Nordeste 0 -- -- 17
2019-04-08 23:00:00 7.2 5 Nordeste 12 Nordeste 0 -- -- 13
2019-04-08 22:00:00 8.4 7 Nordeste 13 Nordeste 0 -- -- 9
2019-04-08 21:00:00 8 7 Este 12 Nordeste 0 -- -- 12
2019-04-08 20:00:00 11.3 3 Sudoeste 10 Oeste 0 -- -- 46
2019-04-08 19:00:00 12.9 6 Oeste 15 Oeste 0 -- -- 61
2019-04-08 18:00:00 12.3 9 Oeste 17 Oeste 0 -- -- 71
2019-04-08 17:00:00 12.1 9 Oeste 20 Oeste 0 -- -- 71
2019-04-08 16:00:00 11.4 10 Oeste 21 Oeste 0 -- -- 81
2019-04-08 15:00:00 10.4 10 Oeste 22 Oeste 0 -- -- 86
2019-04-08 14:00:00 12.1 13 Oeste 21 Oeste 0 -- -- 75
2019-04-08 13:00:00 11.8 9 Oeste 15 Oeste 0 -- -- 73
2019-04-08 12:00:00 10.8 8 Oeste 15 Oeste 0 -- -- 73
2019-04-08 11:00:00 13.2 2 Sudoeste 9 Oeste 0 -- -- 45
2019-04-08 10:00:00 12.8 5 Oeste 10 Sudoeste 0 -- -- 28
2019-04-08 09:00:00 9.9 0 Calma 9 Nordeste 0 -- -- 41
2019-04-08 08:00:00 4.9 4 Nordeste 12 Nordeste 0 -- -- 64
2019-04-08 07:00:00 4.5 4 Nordeste 13 Nordeste 0 -- -- 65
2019-04-08 06:00:00 5.7 3 Norte 12 Norte 0 -- -- 48
2019-04-08 05:00:00 4.3 2 Nordeste 10 Norte 0 -- -- 63
2019-04-08 04:00:00 4.9 3 Nordeste 11 Nordeste 0 -- -- 65
2019-04-08 03:00:00 4.4 4 Este 15 Este 0 -- -- 69
2019-04-08 02:00:00 4.8 5 Nordeste 13 Este 0 -- -- 77
2019-04-08 01:00:00 4.9 4 Nordeste 11 Nordeste 0 -- -- 76
2019-04-08 00:00:00 5.1 3 Este 8 Este 0 -- -- 76
2019-04-07 23:00:00 5.3 4 Este 12 Este 0 -- -- 73
2019-04-07 22:00:00 5.6 2 Oeste 9 Oeste 0 -- -- 71
2019-04-07 21:00:00 5.7 3 Oeste 12 Noroeste 0 -- -- 79
2019-04-07 20:00:00 9.1 6 Oeste 17 Oeste 0 -- -- 77
2019-04-07 19:00:00 10.4 10 Oeste 20 Oeste 0 -- -- 76
2019-04-07 18:00:00 11.5 12 Oeste 23 Oeste 0 -- -- 67
2019-04-07 17:00:00 11.4 14 Oeste 24 Oeste 0 -- -- 71
2019-04-07 16:00:00 11.4 13 Oeste 25 Oeste 0 -- -- 69
2019-04-07 15:00:00 11.3 13 Oeste 27 Oeste 0 -- -- 76
2019-04-07 14:00:00 9.1 4 Nordeste 17 Oeste 0 -- -- 88
2019-04-07 13:00:00 9.3 4 Nordeste 14 Oeste 0 -- -- 82
2019-04-07 12:00:00 9.3 5 Oeste 13 Noroeste 0 -- -- 76
2019-04-07 11:00:00 10.7 4 Nordeste 13 Este 0 -- -- 63
2019-04-07 10:00:00 10.6 4 Norte 10 Noroeste 0 -- -- 58
2019-04-07 09:00:00 6.4 2 Nordeste 7 Nordeste 0 -- -- 78
2019-04-07 08:00:00 3.3 4 Este 11 Este 0 -- -- 86
2019-04-07 07:00:00 3.5 5 Este 11 Este 0 -- -- 85
2019-04-07 06:00:00 3.3 2 Nordeste 13 Este 0 -- -- 85
2019-04-07 05:00:00 3.5 8 Este 15 Nordeste 0 -- -- 86
2019-04-07 04:00:00 3.4 8 Este 16 Nordeste 0 -- -- 87
2019-04-07 03:00:00 4.1 7 Este 18 Este 0 -- -- 79
2019-04-07 02:00:00 4.6 9 Este 23 Nordeste 0 -- -- 73
2019-04-07 01:00:00 3.7 10 Este 27 Este 0 -- -- 79
2019-04-07 00:00:00 3.9 14 Este 32 Este 0 -- -- 78
2019-04-06 23:00:00 2.7 14 Este 33 Este 0 -- -- 95
2019-04-06 22:00:00 2.8 8 Este 24 Este 0.2 -- -- 97
2019-04-06 21:00:00 4.6 6 Este 22 Este 0 -- -- 97
2019-04-06 20:00:00 6 5 Nordeste 16 Norte 0 -- -- 84
2019-04-06 19:00:00 8.3 8 Oeste 15 Oeste 0 -- -- 72
2019-04-06 18:00:00 8.6 6 Oeste 15 Oeste 0 -- -- 71
2019-04-06 17:00:00 9.5 5 Norte 15 Norte 0 -- -- 72
2019-04-06 16:00:00 6.8 6 Este 25 Este 0 -- -- 87
2019-04-06 15:00:00 6.2 5 Este 21 Noroeste 0 -- -- 94
2019-04-06 14:00:00 5.3 7 Norte 23 Noroeste 0 -- -- 97
2019-04-06 13:00:00 5.2 8 Noroeste 25 Noroeste 0 -- -- 97
2019-04-06 12:00:00 4.9 4 Oeste 20 Noroeste 0.2 -- -- 99
2019-04-06 11:00:00 3.6 6 Oeste 30 Oeste 0 -- -- 99
2019-04-06 10:00:00 2.9 6 Noroeste 32 Sudoeste 0 -- -- 98
2019-04-06 09:00:00 3 7 Noroeste 36 Sudoeste 0.2 -- -- 99
2019-04-06 08:00:00 3.1 6 Noroeste 27 Noroeste 0.2 -- -- 99
2019-04-06 07:00:00 2.3 10 Oeste 36 Noroeste 0 -- -- 99
2019-04-06 06:00:00 1.5 3 Oeste 31 Nordeste 0 -- -- 99
2019-04-06 05:00:00 2.1 9 Noroeste 28 Norte 0 -- -- 99
2019-04-06 04:00:00 2.8 8 Norte 28 Noroeste 0.2 -- -- 99
2019-04-06 03:00:00 3.3 11 Noroeste 26 Noroeste 1 -- -- 99
2019-04-06 02:00:00 3.4 12 Noroeste 33 Noroeste 0.2 -- -- 99
2019-04-06 01:00:00 3.5 9 Noroeste 36 Noroeste 0.8 -- -- 99
2019-04-06 00:00:00 3.7 8 Noroeste 24 Oeste 0 -- -- 99
2019-04-05 23:00:00 3 11 Oeste 34 Oeste 0.2 -- -- 98
2019-04-05 22:00:00 3.2 6 Noroeste 34 Oeste 0 -- -- 98
2019-04-05 21:00:00 4 10 Noroeste 39 Oeste 0.2 -- -- 98
2019-04-05 20:00:00 4.2 16 Oeste 51 Oeste 0 -- -- 97
2019-04-05 19:00:00 4.5 21 Oeste 53 Oeste 0 -- -- 97
2019-04-05 18:00:00 5.3 20 Oeste 40 Oeste 0 -- -- 96
2019-04-05 17:00:00 7.7 15 Oeste 28 Oeste 0 -- -- 83
2019-04-05 16:00:00 9.2 10 Oeste 31 Oeste 0 -- -- 69
2019-04-05 15:00:00 6.8 20 Oeste 42 Oeste 0 -- -- 79
2019-04-05 14:00:00 7.5 13 Oeste 28 Sudoeste 0 -- -- 84
2019-04-05 13:00:00 6.6 14 Oeste 28 Oeste 0 -- -- 88
2019-04-05 12:00:00 6.2 6 Noroeste 30 Oeste 0 -- -- 96
2019-04-05 11:00:00 4.1 18 Oeste 30 Oeste 0 -- -- 98
2019-04-05 10:00:00 3.8 13 Oeste 28 Oeste 0 -- -- 98
2019-04-05 09:00:00 3.4 13 Oeste 23 Oeste 0 -- -- 99
2019-04-05 08:00:00 3.2 8 Oeste 22 Oeste 0 -- -- 99
2019-04-05 07:00:00 2.7 5 Oeste 17 Sudoeste 0 -- -- 99
2019-04-05 06:00:00 2.7 9 Oeste 25 Oeste 0 -- -- 99
2019-04-05 05:00:00 3 12 Oeste 25 Oeste 0.2 -- -- 99
2019-04-05 04:00:00 3.4 4 Oeste 27 Oeste 0.2 -- -- 99
2019-04-05 03:00:00 3.7 14 Oeste 23 Oeste 0.4 -- -- 98
2019-04-05 02:00:00 3.8 2 Sudoeste 20 Oeste 0 -- -- 98
2019-04-05 01:00:00 3.7 11 Oeste 26 Oeste 0.2 -- -- 98
2019-04-05 00:00:00 4.1 6 Noroeste 20 Oeste 0 -- -- 98
2019-04-04 23:00:00 4.1 8 Oeste 19 Oeste 0 -- -- 98
2019-04-04 22:00:00 3.9 9 Oeste 21 Sudoeste 0 -- -- 98
2019-04-04 21:00:00 3.6 5 Oeste 17 Oeste 0 -- -- 96
2019-04-04 20:00:00 4.5 5 Norte 23 Oeste 0.2 -- -- 93
2019-04-04 19:00:00 5.2 8 Oeste 30 Oeste 0 -- -- 96
2019-04-04 18:00:00 4.9 7 Oeste 20 Norte 0 -- -- 97
2019-04-04 17:00:00 5.1 4 Noroeste 21 Noroeste 0.2 -- -- 97
2019-04-04 16:00:00 5.7 7 Oeste 23 Oeste 0.2 -- -- 96
2019-04-04 15:00:00 5.6 6 Noroeste 18 Oeste 0 -- -- 94
2019-04-04 14:00:00 6.1 6 Oeste 19 Oeste 0 -- -- 96
2019-04-04 13:00:00 5 4 Noroeste 18 Oeste 0.6 -- -- 97
2019-04-04 12:00:00 6.1 8 Oeste 16 Oeste 0 -- -- 93
2019-04-04 11:00:00 6.1 5 Oeste 12 Este 0 -- -- 88
2019-04-04 10:00:00 5.5 4 Oeste 10 Noroeste 0 -- -- 89
2019-04-04 09:00:00 5.1 0 Calma 4 Oeste 0 -- -- 81
2019-04-04 08:00:00 3.2 4 Sudoeste 13 Sudoeste 0.2 -- -- 97
2019-04-04 07:00:00 3.1 9 Sudoeste 20 Oeste 0 -- -- 95
2019-04-04 06:00:00 2.9 7 Sudoeste 20 Sudoeste 0 -- -- 92
2019-04-04 05:00:00 2.8 7 Sudoeste 15 Sudoeste 0 -- -- 92
2019-04-04 04:00:00 3.5 6 Sudoeste 14 Sur 0 -- -- 96
2019-04-04 03:00:00 3.2 4 Sudoeste 9 Oeste 0 -- -- 96
2019-04-04 02:00:00 3.3 4 Sudoeste 10 Sudoeste 0 -- -- 97
2019-04-04 01:00:00 3 6 Sur 15 Sudoeste 0 -- -- 97
2019-04-04 00:00:00 3.8 9 Oeste 21 Oeste 0 -- -- 98
2019-04-03 23:00:00 3.9 8 Oeste 19 Oeste 0 -- -- 97
2019-04-03 22:00:00 4.1 6 Oeste 15 Oeste 0 -- -- 96
2019-04-03 21:00:00 4.1 7 Oeste 18 Oeste 0 -- -- 93
2019-04-03 20:00:00 6.1 11 Oeste 23 Oeste 0 -- -- 85
2019-04-03 19:00:00 7 7 Sudoeste 18 Oeste 0 -- -- 76
2019-04-03 18:00:00 9.2 10 Oeste 30 Oeste 0 -- -- 65
2019-04-03 17:00:00 10.6 11 Oeste 27 Oeste 0 -- -- 67
2019-04-03 16:00:00 9.4 17 Oeste 32 Oeste 0 -- -- 74
2019-04-03 15:00:00 9.4 13 Oeste 31 Noroeste 0 -- -- 67
2019-04-03 14:00:00 9.2 13 Oeste 28 Oeste 0 -- -- 79
2019-04-03 13:00:00 7.4 13 Sudoeste 34 Oeste 0.2 -- -- 82
2019-04-03 12:00:00 9.5 10 Oeste 24 Sudoeste 0 -- -- 78
2019-04-03 11:00:00 6.7 9 Oeste 16 Oeste 0 -- -- 92
2019-04-03 10:00:00 6 7 Sudoeste 17 Sudoeste 0 -- -- 95
2019-04-03 09:00:00 5.5 5 Sudoeste 17 Oeste 0 -- -- 98
2019-04-03 08:00:00 5.1 6 Oeste 17 Sudoeste 0 -- -- 98
2019-04-03 07:00:00 5.2 7 Sudoeste 21 Oeste 0 -- -- 98
2019-04-03 06:00:00 5.2 9 Sudoeste 21 Sudoeste 0 -- -- 98
2019-04-03 05:00:00 5.3 7 Oeste 15 Sudoeste 0 -- -- 98
2019-04-03 04:00:00 4.9 6 Sudoeste 16 Sudoeste 0 -- -- 98
2019-04-03 03:00:00 5.2 8 Sudoeste 18 Sudoeste 0 -- -- 98
2019-04-03 02:00:00 5.6 7 Sudoeste 15 Sudoeste 0 -- -- 97
2019-04-03 01:00:00 5.9 5 Oeste 13 Oeste 0 -- -- 98
2019-04-03 00:00:00 6.1 4 Sudoeste 14 Sudoeste 0 -- -- 97
2019-04-02 23:00:00 5.9 5 Sudoeste 12 Sur 0 -- -- 98
2019-04-02 22:00:00 5.9 4 Sudoeste 17 Oeste 0 -- -- 97
2019-04-02 21:00:00 6.7 6 Oeste 13 Oeste 0 -- -- 98
2019-04-02 20:00:00 7.2 8 Sudoeste 18 Oeste 0 -- -- 97
2019-04-02 19:00:00 7.6 12 Oeste 19 Oeste 0 -- -- 97
2019-04-02 18:00:00 8.6 7 Oeste 15 Oeste 0 -- -- 95
2019-04-02 17:00:00 8.9 6 Oeste 16 Oeste 0 -- -- 90
2019-04-02 16:00:00 10.8 8 Sudeste 19 Oeste 0 -- -- 76
2019-04-02 15:00:00 11.7 9 Sudoeste 27 Oeste 0 -- -- 70
2019-04-02 14:00:00 11.8 12 Oeste 26 Oeste 0 -- -- 63
2019-04-02 13:00:00 11.7 9 Oeste 27 Noroeste 0 -- -- 58
2019-04-02 12:00:00 10.1 12 Oeste 21 Oeste 0 -- -- 63
2019-04-02 11:00:00 9.7 7 Sudoeste 19 Oeste 0 -- -- 67
2019-04-02 10:00:00 6.3 8 Sudoeste 16 Oeste 0 -- -- 84
2019-04-02 09:00:00 5.9 7 Sudoeste 19 Sur 0 -- -- 81
2019-04-02 08:00:00 4.9 4 Sudoeste 15 Sur 0 -- -- 65
2019-04-02 07:00:00 4.5 4 Sudeste 12 Sudoeste 0 -- -- 80
2019-04-02 06:00:00 4.9 3 Sur 15 Sur 0 -- -- 75
2019-04-02 05:00:00 5.5 8 Sur 26 Sur 0 -- -- 70
2019-04-02 04:00:00 5.4 12 Sudeste 29 Sudeste 0 -- -- 82
2019-04-02 03:00:00 5.1 12 Sudeste 24 Sudeste 0 -- -- 81
2019-04-02 02:00:00 5.2 9 Sudeste 19 Sudeste 0 -- -- 86
2019-04-02 01:00:00 5.7 9 Sudeste 24 Sudeste 0 -- -- 81
2019-04-02 00:00:00 5.3 4 Sudeste 8 Este 0 -- -- 86
2019-04-01 23:00:00 5 3 Sudeste 8 Sur 0 -- -- 87
2019-04-01 22:00:00 4.3 3 Sur 5 Sur 0 -- -- 94
2019-04-01 21:00:00 5.2 3 Sudoeste 8 Sudoeste 0 -- -- 96
2019-04-01 20:00:00 6.2 4 Oeste 14 Sudoeste 0 -- -- 96
2019-04-01 19:00:00 6.8 6 Oeste 19 Oeste 0 -- -- 94
2019-04-01 18:00:00 8 10 Oeste 22 Oeste 0 -- -- 85
2019-04-01 17:00:00 7.1 8 Sudoeste 21 Sudoeste 0 -- -- 89
2019-04-01 16:00:00 8.9 11 Sudoeste 22 Sudoeste 0 -- -- 80
2019-04-01 15:00:00 8.9 10 Sudoeste 22 Oeste 0 -- -- 78
2019-04-01 14:00:00 8.7 9 Oeste 18 Oeste 0 -- -- 81
2019-04-01 13:00:00 10.7 6 Sur 20 Oeste 0 -- -- 75
2019-04-01 12:00:00 9.6 7 Sudoeste 20 Sudoeste 0 -- -- 67
2019-04-01 11:00:00 10 8 Noroeste 14 Noroeste 0 -- -- 71
2019-04-01 10:00:00 9.7 2 Oeste 5 Oeste 0 -- -- 70
2019-04-01 09:00:00 4.3 0 Calma 3 Este 0 -- -- 98
2019-04-01 08:00:00 2 0 Calma 3 Este 0 -- -- 97
2019-04-01 07:00:00 2.2 0 Calma 3 Este 0 -- -- 98
2019-04-01 06:00:00 2.9 0 Calma 4 Noroeste 0 -- -- 97
2019-04-01 05:00:00 3.2 0 Calma 3 Sur 0 -- -- 97
2019-04-01 04:00:00 4.3 2 Sur 6 Sudoeste 0 -- -- 97
2019-04-01 03:00:00 3.4 0 Calma 5 Oeste 0 -- -- 98
2019-04-01 02:00:00 3.7 2 Norte 5 Noroeste 0 -- -- 95
2019-04-01 01:00:00 3.2 0 Calma 4 Sudeste 0 -- -- 97
2019-04-01 00:00:00 3.2 0 Calma 5 Sur 0 -- -- 98
2019-03-31 23:00:00 3.7 0 Calma 4 Sudoeste 0 -- -- 98
2019-03-31 22:00:00 5.1 0 Calma 6 Sudoeste 0 -- -- 97
2019-03-31 21:00:00 5.4 2 Sudoeste 10 Noroeste 0 -- -- 97
2019-03-31 20:00:00 6 6 Oeste 14 Oeste 0 -- -- 96
2019-03-31 19:00:00 6.6 6 Oeste 15 Oeste 0 -- -- 95
2019-03-31 18:00:00 7.9 6 Oeste 17 Oeste 0 -- -- 86
2019-03-31 17:00:00 8.2 7 Oeste 15 Oeste 0 -- -- 82
2019-03-31 16:00:00 6.4 5 Oeste 13 Oeste 0 -- -- 96
2019-03-31 15:00:00 6.9 4 Nordeste 19 Oeste 0 -- -- 95
2019-03-31 14:00:00 10.1 5 Nordeste 19 Noroeste 0 -- -- 77
2019-03-31 13:00:00 8.7 7 Oeste 17 Noroeste 0 -- -- 77
2019-03-31 12:00:00 8.5 11 Oeste 19 Oeste 0 -- -- 75
2019-03-31 11:00:00 8.5 8 Oeste 18 Oeste 0 -- -- 75
2019-03-31 10:00:00 7.7 7 Oeste 15 Oeste 0 -- -- 77
2019-03-31 09:00:00 4.8 6 Oeste 14 Oeste 0 -- -- 89
2019-03-31 08:00:00 2.7 2 Oeste 6 Sur 0 -- -- 84
2019-03-31 07:00:00 2.8 0 Calma 6 Sudoeste 0 -- -- 70
2019-03-31 06:00:00 3.4 2 Norte 7 Noroeste 0 -- -- 71
2019-03-31 05:00:00 2 2 Sur 5 Sudeste 0 -- -- 82
2019-03-31 04:00:00 2.2 2 Sudoeste 10 Oeste 0 -- -- 84
2019-03-31 00:00:00 1.9 0 Calma 10 Noroeste 0 -- -- 86
2019-03-30 23:00:00 3.3 4 Oeste 11 Noroeste 0 -- -- 83
2019-03-30 22:00:00 3.2 7 Oeste 16 Oeste 0 -- -- 96
2019-03-30 21:00:00 3.4 6 Oeste 16 Oeste 0 -- -- 95
2019-03-30 20:00:00 3.9 8 Oeste 20 Oeste 0 -- -- 94
2019-03-30 19:00:00 4.8 10 Oeste 26 Oeste 0 -- -- 87
2019-03-30 18:00:00 5.5 13 Oeste 26 Oeste 0 -- -- 85
2019-03-30 17:00:00 6.2 13 Oeste 26 Oeste 0 -- -- 81
2019-03-30 16:00:00 6.4 7 Noroeste 27 Oeste 0 -- -- 89
2019-03-30 15:00:00 8.3 7 Noroeste 21 Noroeste 0 -- -- 82
2019-03-30 14:00:00 7.2 6 Oeste 18 Oeste 0 -- -- 78
2019-03-30 13:00:00 7.5 9 Oeste 18 Oeste 0 -- -- 73
2019-03-30 12:00:00 6.6 10 Oeste 19 Oeste 0 -- -- 74
2019-03-30 11:00:00 6.1 5 Oeste 11 Oeste 0 -- -- 76
2019-03-30 10:00:00 7.1 4 Noroeste 10 Norte 0.2 -- -- 82
2019-03-30 09:00:00 4.6 4 Oeste 10 Este 0 -- -- 86
2019-03-30 08:00:00 3.7 0 Calma 5 Noroeste 0 -- -- 98
2019-03-30 07:00:00 1.2 0 Calma 6 Nordeste 0 -- -- 96
2019-03-30 06:00:00 2.1 3 Nordeste 8 Nordeste 0 -- -- 97
2019-03-30 05:00:00 1.2 0 Calma 3 Sudeste 0 -- -- 89
2019-03-30 04:00:00 1.4 0 Calma 2 Sur 0 -- -- 93
2019-03-30 03:00:00 1.7 0 Calma 4 Sudoeste 0 -- -- 92
2019-03-30 02:00:00 3.1 0 Calma 4 Sudoeste 0 -- -- 90
2019-03-30 01:00:00 2.5 0 Calma 6 Sudeste 0 -- -- 93
2019-03-30 00:00:00 2.8 2 Sudeste 5 Sudeste 0 -- -- 93
2019-03-29 23:00:00 2.4 3 Este 6 Este 0 -- -- 93
2019-03-29 22:00:00 2.2 0 Calma 4 Nordeste 0 -- -- 95
2019-03-29 21:00:00 3.1 3 Este 4 Sudeste 0 -- -- 96
2019-03-29 20:00:00 4.7 2 Oeste 13 Oeste 0 -- -- 95
2019-03-29 19:00:00 5.7 5 Oeste 16 Oeste 0 -- -- 95
2019-03-29 18:00:00 6.5 9 Oeste 19 Oeste 0 -- -- 91
2019-03-29 17:00:00 7 7 Oeste 19 Oeste 0 -- -- 95
2019-03-29 16:00:00 7.5 10 Oeste 22 Oeste 0 -- -- 89
2019-03-29 15:00:00 7.9 8 Oeste 16 Oeste 0 -- -- 90
2019-03-29 14:00:00 7.4 8 Oeste 16 Oeste 0 -- -- 93
2019-03-29 13:00:00 8.5 8 Oeste 17 Oeste 0.2 -- -- 84
2019-03-29 12:00:00 8.5 6 Oeste 14 Oeste 0 -- -- 71
2019-03-29 11:00:00 9.1 8 Oeste 12 Oeste 0 -- -- 67
2019-03-29 10:00:00 9.3 0 Calma 11 Sudoeste 0 -- -- 64
2019-03-29 09:00:00 9.2 4 Oeste 8 Noroeste 0 -- -- 63
2019-03-29 08:00:00 4.7 3 Sudoeste 7 Sudoeste 0 -- -- 84
2019-03-29 07:00:00 2 3 Sudoeste 5 Sudoeste 0 -- -- 97
2019-03-29 06:00:00 2.1 2 Sur 3 Sur 0 -- -- 96
2019-03-29 05:00:00 2.3 0 Calma 3 Sur 0 -- -- 94
2019-03-29 04:00:00 2.6 0 Calma 4 Este 0 -- -- 92
2019-03-29 03:00:00 2.8 0 Calma 8 Sudeste 0 -- -- 93
2019-03-29 02:00:00 2.8 2 Este 4 Este 0 -- -- 93
2019-03-29 01:00:00 2 0 Calma 9 Este 0 -- -- 93
2019-03-29 00:00:00 2.3 5 Este 12 Nordeste 0 -- -- 89
2019-03-28 23:00:00 5.1 4 Este 12 Nordeste 0 -- -- 94
2019-03-28 22:00:00 5.4 4 Este 11 Sudeste 0.2 -- -- 96
2019-03-28 21:00:00 -- 4 Este 9 Nordeste 0.2 -- -- --
2019-03-28 20:00:00 6.3 2 Norte 8 Noroeste 1.4 -- -- 97
2019-03-28 19:00:00 6.8 3 Sudeste 13 Nordeste 0.2 -- -- 97
2019-03-28 18:00:00 6.7 3 Oeste 12 Oeste 2.6 -- -- 96
2019-03-28 17:00:00 7.8 3 Noroeste 8 Oeste 0 -- -- 94
2019-03-28 16:00:00 8 3 Oeste 15 Oeste 0 -- -- 90
2019-03-28 15:00:00 8.7 6 Oeste 14 Sudoeste 0 -- -- 86
2019-03-28 14:00:00 9.2 8 Oeste 19 Noroeste 0 -- -- 86
2019-03-28 13:00:00 9.7 8 Oeste 15 Oeste 0 -- -- 76
2019-03-28 12:00:00 8.4 8 Oeste 15 Oeste 0 -- -- 77
2019-03-28 11:00:00 10.9 8 Oeste 13 Sudoeste 0 -- -- 66
2019-03-28 10:00:00 7.2 3 Oeste 12 Oeste 0 -- -- 72
2019-03-28 09:00:00 9.7 3 Sudeste 8 Oeste 0 -- -- 67
2019-03-28 08:00:00 4.8 0 Calma 2 Este 0 -- -- 85
2019-03-28 07:00:00 2 2 Este 4 Este 0 -- -- 85
2019-03-28 06:00:00 1.6 3 Este 6 Este 0 -- -- 85
2019-03-28 05:00:00 2.2 0 Calma 4 Nordeste 0 -- -- 91
2019-03-28 04:00:00 1.8 2 Este 5 Nordeste 0 -- -- 88
2019-03-28 03:00:00 1.7 3 Este 8 Nordeste 0 -- -- 95
2019-03-28 02:00:00 3 4 Nordeste 6 Nordeste 0 -- -- 97
2019-03-28 01:00:00 3 0 Calma 4 Este 0.2 -- -- 98
2019-03-28 00:00:00 3.1 0 Calma 3 Norte 0 -- -- 98
2019-03-27 23:00:00 3.3 0 Calma 2 Nordeste 0 -- -- 98
2019-03-27 22:00:00 4.3 2 Nordeste 11 Oeste 0 -- -- 97
2019-03-27 21:00:00 5.6 5 Oeste 18 Oeste 0 -- -- 98
2019-03-27 20:00:00 6.1 10 Oeste 19 Oeste 0 -- -- 97
2019-03-27 19:00:00 6.2 10 Oeste 19 Oeste 0 -- -- 97
2019-03-27 18:00:00 6.6 9 Oeste 17 Oeste 1.2 -- -- 97
2019-03-27 17:00:00 7.1 4 Oeste 20 Noroeste 0 -- -- 96
2019-03-27 16:00:00 7.6 12 Oeste 19 Noroeste 0 -- -- 95
2019-03-27 15:00:00 8.7 9 Oeste 19 Oeste 0 -- -- 91
2019-03-27 14:00:00 10.6 4 Sudoeste 18 Oeste 0 -- -- 81
2019-03-27 13:00:00 8.9 10 Oeste 18 Oeste 0 -- -- 87
2019-03-27 12:00:00 8.8 5 Oeste 12 Oeste 0 -- -- 78
2019-03-27 11:00:00 9.3 5 Noroeste 14 Noroeste 0 -- -- 76
2019-03-27 10:00:00 8.4 4 Noroeste 14 Noroeste 0 -- -- 86
2019-03-27 09:00:00 7.8 3 Nordeste 12 Noroeste 0 -- -- 86
2019-03-27 08:00:00 5.3 5 Oeste 14 Oeste 0 -- -- 96
2019-03-27 07:00:00 5.2 6 Oeste 14 Oeste 0 -- -- 96
2019-03-27 06:00:00 5.2 4 Noroeste 15 Oeste 0 -- -- 97
2019-03-27 05:00:00 4.8 5 Noroeste 13 Oeste 0 -- -- 96
2019-03-27 04:00:00 4.8 3 Norte 14 Noroeste 0 -- -- 95
2019-03-27 03:00:00 5.2 4 Noroeste 16 Norte 0 -- -- 96
2019-03-27 02:00:00 5.3 3 Noroeste 18 Oeste 0 -- -- 96
2019-03-27 01:00:00 4.7 6 Noroeste 16 Oeste 0 -- -- 93
2019-03-27 00:00:00 4.3 5 Sudeste 12 Noroeste 0 -- -- 87